BEIDOU G4

Last updated on April 2, 2019, 3:15 a.m. UTC

1 37210U 10057A   19091.88520647 -.00000124  00000-0  00000+0 0  9993
2 37210   1.0069  55.5053 0002584 181.0532  72.1006  1.00273094 30873
UTC
Height (km)
Latitude
Longitude
Inclination
Orbital Period
UTC large
Height (km)
Speed (km/s)
/
Latitude / Longitude
Inclination (degrees)
Orbital Period (minutes)
Azimuth
Elevation
Range (km)
Doppler Factor
iOS Compass Heading
iOS Angle

Next 30 passes for location: Hong Kong

Rise time Rise Azimuth (degrees) Set time Set Azimuth (degrees) Duration Max altitude (degrees)

No matching passes for this satellites